Location: Miss�
(46.9484°N, 0.1922°W)
Time: 03:28:58
(UTC+00:00)

SL-4 R/B - Pass Details

Date: 02 March 2021
Orbit: 428 x 663 km, 51.6° (Epoch: 16 April)

Event Time Altitude Azimuth Distance (km) Brightness Sun altitude
Rises 18:16:29 0° 279° (W) 2,528 7.4 -5.7°
Reaches altitude 10° 18:18:48 10° 288° (WNW) 1,615 5.8 -6.1°
Maximum altitude 18:22:11 37° 357° (N) 714 2.6 -6.6°
Drops below altitude 10° 18:25:26 10° 67° (ENE) 1,544 3.7 -7.2°
Enters shadow 18:25:44 - 69° (ENE) 1,658 3.9 -7.2°
